Time,TemperatureF,DewpointF,PressureIn,WindDirection,WindDirectionDegrees,WindSpeedMPH,WindSpeedGustMPH,Humidity,HourlyPrecipIn,Conditions,Clouds,dailyrainin,SoftwareType,DateUTC
2013-09-24 00:03:00,70.3,59.7,29.76,SE,138,0.0,18.0,69,4.14,,,0.00,VWS V13.01,2013-09-24 05:03:00,
2013-09-24 00:08:00,70.2,60.0,29.76,SE,138,0.0,18.0,70,4.14,,,0.00,VWS V13.01,2013-09-24 05:08:00,
2013-09-24 00:13:00,70.1,60.3,29.76,SE,138,0.0,18.0,71,4.14,,,0.00,VWS V13.01,2013-09-24 05:13:00,
2013-09-24 00:18:00,69.9,60.1,29.76,SE,137,0.0,18.0,71,4.14,,,0.00,VWS V13.01,2013-09-24 05:18:00,
2013-09-24 00:23:00,69.7,60.3,29.76,SE,137,0.0,18.0,72,4.14,,,0.00,VWS V13.01,2013-09-24 05:23:00,
2013-09-24 00:28:00,69.6,60.2,29.76,SE,138,0.0,18.0,72,4.14,,,0.00,VWS V13.01,2013-09-24 05:28:00,
2013-09-24 00:33:00,69.4,60.0,29.76,SE,138,0.0,18.0,72,4.14,,,0.00,VWS V13.01,2013-09-24 05:33:00,
2013-09-24 00:38:00,69.2,59.8,29.76,SE,137,0.0,18.0,72,4.14,,,0.00,VWS V13.01,2013-09-24 05:38:00,
2013-09-24 00:43:00,69.0,59.6,29.76,SE,137,0.0,18.0,72,4.14,,,0.00,VWS V13.01,2013-09-24 05:43:00,
2013-09-24 00:48:00,68.8,59.0,29.76,SE,137,0.0,18.0,71,4.14,,,0.00,VWS V13.01,2013-09-24 05:48:00,
2013-09-24 00:53:00,68.6,58.8,29.76,SE,137,0.0,18.0,71,4.14,,,0.00,VWS V13.01,2013-09-24 05:53:00,
2013-09-24 00:58:00,68.2,58.8,29.76,SE,138,0.0,18.0,72,4.14,,,0.00,VWS V13.01,2013-09-24 05:58:00,
2013-09-24 01:03:00,67.9,58.5,29.76,SE,138,0.0,18.0,72,4.14,,,0.00,VWS V13.01,2013-09-24 06:03:00,
2013-09-24 01:08:00,67.6,58.3,29.76,SE,137,0.0,18.0,72,4.14,,,0.00,VWS V13.01,2013-09-24 06:08:00,
2013-09-24 01:13:00,67.4,58.5,29.76,SE,137,0.0,18.0,73,4.14,,,0.00,VWS V13.01,2013-09-24 06:13:00,
2013-09-24 01:18:00,67.3,58.4,29.76,SE,138,0.0,18.0,73,4.14,,,0.00,VWS V13.01,2013-09-24 06:18:00,
2013-09-24 01:23:00,67.2,58.3,29.76,SE,138,0.0,18.0,73,4.14,,,0.00,VWS V13.01,2013-09-24 06:23:00,
2013-09-24 01:28:00,67.2,59.0,29.76,SE,137,0.0,18.0,75,4.14,,,0.00,VWS V13.01,2013-09-24 06:28:00,
2013-09-24 01:33:00,67.3,59.5,29.77,SE,138,0.0,18.0,76,4.14,,,0.00,VWS V13.01,2013-09-24 06:33:00,
2013-09-24 01:38:00,67.3,59.5,29.77,SE,138,0.0,18.0,76,4.14,,,0.00,VWS V13.01,2013-09-24 06:38:00,
2013-09-24 01:43:00,67.2,59.4,29.77,SE,137,0.0,18.0,76,4.14,,,0.00,VWS V13.01,2013-09-24 06:43:00,
2013-09-24 01:48:00,67.2,59.4,29.77,SE,138,0.0,18.0,76,4.14,,,0.00,VWS V13.01,2013-09-24 06:48:00,
2013-09-24 01:53:00,67.2,59.4,29.77,SE,138,0.0,18.0,76,4.14,,,0.00,VWS V13.01,2013-09-24 06:53:00,
2013-09-24 01:58:00,67.1,58.9,29.77,SE,137,0.0,18.0,75,4.14,,,0.00,VWS V13.01,2013-09-24 06:58:00,
2013-09-24 02:03:00,67.0,58.5,29.76,SE,137,0.0,18.0,74,4.14,,,0.00,VWS V13.01,2013-09-24 07:03:00,
2013-09-24 02:09:00,67.0,58.5,29.76,SE,138,0.0,18.0,74,4.14,,,0.00,VWS V13.01,2013-09-24 07:09:00,
2013-09-24 02:14:00,67.0,58.5,29.76,SE,138,0.0,18.0,74,4.14,,,0.00,VWS V13.01,2013-09-24 07:14:00,
2013-09-24 02:19:00,67.0,58.5,29.76,SE,138,0.0,18.0,74,4.14,,,0.00,VWS V13.01,2013-09-24 07:19:00,
2013-09-24 02:24:00,67.0,59.2,29.76,SE,138,0.0,18.0,76,4.14,,,0.00,VWS V13.01,2013-09-24 07:24:00,
2013-09-24 02:29:00,67.0,59.2,29.76,SE,138,0.0,18.0,76,4.14,,,0.00,VWS V13.01,2013-09-24 07:29:00,
2013-09-24 02:34:00,66.8,59.0,29.77,SE,138,0.0,18.0,76,4.14,,,0.00,VWS V13.01,2013-09-24 07:34:00,
2013-09-24 02:39:00,66.7,58.5,29.77,SE,138,0.0,18.0,75,4.14,,,0.00,VWS V13.01,2013-09-24 07:39:00,
2013-09-24 02:44:00,66.5,58.3,29.77,SE,137,0.0,18.0,75,4.14,,,0.00,VWS V13.01,2013-09-24 07:44:00,
2013-09-24 02:49:00,66.3,58.2,29.77,SE,137,0.0,18.0,75,4.14,,,0.00,VWS V13.01,2013-09-24 07:49:00,
2013-09-24 02:54:00,66.1,58.0,29.77,SE,137,0.0,18.0,75,4.14,,,0.00,VWS V13.01,2013-09-24 07:54:00,
2013-09-24 02:59:00,65.9,57.8,29.77,SE,138,0.0,18.0,75,4.14,,,0.00,VWS V13.01,2013-09-24 07:59:00,
2013-09-24 03:04:00,65.8,58.0,29.77,SE,138,0.0,18.0,76,4.14,,,0.00,VWS V13.01,2013-09-24 08:04:00,
2013-09-24 03:09:00,65.7,58.3,29.77,SE,137,0.0,18.0,77,4.14,,,0.00,VWS V13.01,2013-09-24 08:09:00,
2013-09-24 03:14:00,65.5,58.1,29.77,SE,138,0.0,18.0,77,4.14,,,0.00,VWS V13.01,2013-09-24 08:14:00,
2013-09-24 03:19:00,65.2,57.8,29.77,SE,138,0.0,18.0,77,4.14,,,0.00,VWS V13.01,2013-09-24 08:19:00,
2013-09-24 03:24:00,65.0,57.6,29.77,SE,138,0.0,18.0,77,4.14,,,0.00,VWS V13.01,2013-09-24 08:24:00,
2013-09-24 03:29:00,64.8,57.4,29.77,SE,138,0.0,18.0,77,4.14,,,0.00,VWS V13.01,2013-09-24 08:29:00,
2013-09-24 03:34:00,64.7,57.3,29.77,SE,138,0.0,18.0,77,4.14,,,0.00,VWS V13.01,2013-09-24 08:34:00,
2013-09-24 03:39:00,64.5,57.1,29.77,SE,137,0.0,18.0,77,4.14,,,0.00,VWS V13.01,2013-09-24 08:39:00,
2013-09-24 03:44:00,64.4,57.0,29.77,SE,138,0.0,18.0,77,4.14,,,0.00,VWS V13.01,2013-09-24 08:44:00,
2013-09-24 03:49:00,64.3,57.0,29.77,SE,137,0.0,18.0,77,4.14,,,0.00,VWS V13.01,2013-09-24 08:49:00,
2013-09-24 03:54:00,64.3,57.0,29.77,SE,138,0.0,18.0,77,4.14,,,0.00,VWS V13.01,2013-09-24 08:54:00,
2013-09-24 03:59:00,64.2,56.8,29.77,SE,138,0.0,18.0,77,4.14,,,0.00,VWS V13.01,2013-09-24 08:59:00,
2013-09-24 04:04:00,64.1,57.1,29.78,SE,138,0.0,18.0,78,4.14,,,0.00,VWS V13.01,2013-09-24 09:04:00,
2013-09-24 04:09:00,64.1,57.1,29.78,SE,138,0.0,18.0,78,4.14,,,0.00,VWS V13.01,2013-09-24 09:09:00,
2013-09-24 04:14:00,64.0,57.0,29.78,SE,138,0.0,18.0,78,4.14,,,0.00,VWS V13.01,2013-09-24 09:14:00,
2013-09-24 04:19:00,63.9,56.9,29.77,SE,138,0.0,18.0,78,4.14,,,0.00,VWS V13.01,2013-09-24 09:19:00,
2013-09-24 04:24:00,63.9,56.9,29.77,SE,138,0.0,18.0,78,4.14,,,0.00,VWS V13.01,2013-09-24 09:24:00,
2013-09-24 04:29:00,63.8,57.2,29.77,SE,138,0.0,18.0,79,4.14,,,0.00,VWS V13.01,2013-09-24 09:29:00,
2013-09-24 04:34:00,63.7,57.1,29.77,SE,138,0.0,18.0,79,4.14,,,0.00,VWS V13.01,2013-09-24 09:34:00,
2013-09-24 04:39:00,63.6,57.0,29.77,SE,137,0.0,18.0,79,4.14,,,0.00,VWS V13.01,2013-09-24 09:39:00,
2013-09-24 04:44:00,63.6,57.0,29.77,SE,137,0.0,18.0,79,4.14,,,0.00,VWS V13.01,2013-09-24 09:44:00,
2013-09-24 04:49:00,63.5,57.2,29.78,SE,137,0.0,18.0,80,4.14,,,0.00,VWS V13.01,2013-09-24 09:49:00,
2013-09-24 04:54:00,63.5,57.2,29.78,SE,138,0.0,18.0,80,4.14,,,0.00,VWS V13.01,2013-09-24 09:54:00,
2013-09-24 04:59:00,63.6,57.3,29.78,SE,138,0.0,18.0,80,4.14,,,0.00,VWS V13.01,2013-09-24 09:59:00,
2013-09-24 05:04:00,63.5,57.2,29.78,SE,138,0.0,18.0,80,4.14,,,0.00,VWS V13.01,2013-09-24 10:04:00,
2013-09-24 05:09:00,63.5,57.2,29.78,SE,138,0.0,18.0,80,4.14,,,0.00,VWS V13.01,2013-09-24 10:09:00,
2013-09-24 05:14:00,63.4,57.5,29.78,SE,138,0.0,18.0,81,4.14,,,0.00,VWS V13.01,2013-09-24 10:14:00,
2013-09-24 05:19:00,63.3,57.4,29.78,SE,137,0.0,18.0,81,4.14,,,0.00,VWS V13.01,2013-09-24 10:19:00,
2013-09-24 05:24:00,63.2,57.6,29.78,SE,137,0.0,18.0,82,4.14,,,0.00,VWS V13.01,2013-09-24 10:24:00,
2013-09-24 05:29:00,63.2,57.6,29.78,SE,137,0.0,18.0,82,4.14,,,0.00,VWS V13.01,2013-09-24 10:29:00,
2013-09-24 05:34:00,63.1,57.5,29.79,SE,138,0.0,18.0,82,4.14,,,0.00,VWS V13.01,2013-09-24 10:34:00,
2013-09-24 05:39:00,63.1,57.9,29.79,SE,137,0.0,18.0,83,4.14,,,0.00,VWS V13.01,2013-09-24 10:39:00,
2013-09-24 05:44:00,63.0,57.8,29.79,SE,138,0.0,18.0,83,4.14,,,0.00,VWS V13.01,2013-09-24 10:44:00,
2013-09-24 05:49:00,63.0,58.1,29.80,SE,137,0.0,18.0,84,4.14,,,0.00,VWS V13.01,2013-09-24 10:49:00,
2013-09-24 05:54:00,63.0,58.1,29.80,SE,137,0.0,18.0,84,4.14,,,0.00,VWS V13.01,2013-09-24 10:54:00,
2013-09-24 05:59:00,62.8,57.9,29.80,SE,138,0.0,18.0,84,4.14,,,0.00,VWS V13.01,2013-09-24 10:59:00,
2013-09-24 06:04:00,62.8,57.9,29.80,SE,137,0.0,18.0,84,4.14,,,0.00,VWS V13.01,2013-09-24 11:04:00,
2013-09-24 06:09:00,62.7,57.8,29.80,SE,138,0.0,18.0,84,4.14,,,0.00,VWS V13.01,2013-09-24 11:09:00,
2013-09-24 06:14:00,62.7,57.8,29.80,SE,137,0.0,18.0,84,4.14,,,0.00,VWS V13.01,2013-09-24 11:14:00,
2013-09-24 06:19:00,62.7,57.8,29.80,SE,138,0.0,18.0,84,4.14,,,0.00,VWS V13.01,2013-09-24 11:19:00,
2013-09-24 06:24:00,62.7,58.1,29.80,SE,137,0.0,18.0,85,4.14,,,0.00,VWS V13.01,2013-09-24 11:24:00,
2013-09-24 06:29:00,62.6,58.0,29.80,SE,138,0.0,18.0,85,4.14,,,0.00,VWS V13.01,2013-09-24 11:29:00,
2013-09-24 06:34:00,62.5,57.9,29.80,SE,138,0.0,18.0,85,4.14,,,0.00,VWS V13.01,2013-09-24 11:34:00,
2013-09-24 06:39:00,62.5,57.9,29.80,SE,137,0.0,18.0,85,4.14,,,0.00,VWS V13.01,2013-09-24 11:39:00,
2013-09-24 06:44:00,62.4,57.8,29.80,SE,138,0.0,18.0,85,4.14,,,0.00,VWS V13.01,2013-09-24 11:44:00,
2013-09-24 06:49:00,62.3,57.7,29.81,SE,138,0.0,18.0,85,4.14,,,0.00,VWS V13.01,2013-09-24 11:49:00,
2013-09-24 06:55:00,62.2,58.0,29.81,SE,137,0.0,18.0,86,4.14,,,0.00,VWS V13.01,2013-09-24 11:55:00,
2013-09-24 07:00:00,62.3,58.1,29.81,SE,137,0.0,18.0,86,4.14,,,0.00,VWS V13.01,2013-09-24 12:00:00,
2013-09-24 07:05:00,62.3,58.1,29.81,SE,138,0.0,18.0,86,4.14,,,0.00,VWS V13.01,2013-09-24 12:05:00,
2013-09-24 07:10:00,62.3,58.1,29.81,SE,138,0.0,18.0,86,4.14,,,0.00,VWS V13.01,2013-09-24 12:10:00,
2013-09-24 07:15:00,62.3,58.1,29.81,SE,138,0.0,18.0,86,4.14,,,0.00,VWS V13.01,2013-09-24 12:15:00,
2013-09-24 07:20:00,62.3,58.4,29.81,SE,137,0.0,18.0,87,4.14,,,0.00,VWS V13.01,2013-09-24 12:20:00,
2013-09-24 07:25:00,62.3,58.4,29.81,SE,137,0.0,18.0,87,4.14,,,0.00,VWS V13.01,2013-09-24 12:25:00,
2013-09-24 07:30:00,62.3,58.7,29.81,SE,137,0.0,18.0,88,4.14,,,0.00,VWS V13.01,2013-09-24 12:30:00,
2013-09-24 07:35:00,62.4,58.8,29.82,SE,137,0.0,18.0,88,4.14,,,0.00,VWS V13.01,2013-09-24 12:35:00,
2013-09-24 07:40:00,62.3,58.7,29.82,SE,138,0.0,18.0,88,4.14,,,0.00,VWS V13.01,2013-09-24 12:40:00,
2013-09-24 07:45:00,62.3,58.7,29.82,SE,138,0.0,18.0,88,4.14,,,0.00,VWS V13.01,2013-09-24 12:45:00,
2013-09-24 07:50:00,62.2,58.6,29.82,SE,138,0.0,18.0,88,4.14,,,0.00,VWS V13.01,2013-09-24 12:50:00,
2013-09-24 07:55:00,62.3,58.7,29.82,SE,138,0.0,18.0,88,4.14,,,0.00,VWS V13.01,2013-09-24 12:55:00,
2013-09-24 08:00:00,62.3,58.7,29.82,SE,137,0.0,18.0,88,4.14,,,0.00,VWS V13.01,2013-09-24 13:00:00,
2013-09-24 08:05:00,62.3,58.7,29.83,SE,137,0.0,18.0,88,4.14,,,0.00,VWS V13.01,2013-09-24 13:05:00,
2013-09-24 08:10:00,62.4,59.1,29.83,SE,138,0.0,18.0,89,4.14,,,0.00,VWS V13.01,2013-09-24 13:10:00,
2013-09-24 08:15:00,62.6,59.3,29.83,SE,137,0.0,18.0,89,4.14,,,0.00,VWS V13.01,2013-09-24 13:15:00,
2013-09-24 08:20:00,62.8,59.5,29.83,SE,138,0.0,18.0,89,4.14,,,0.00,VWS V13.01,2013-09-24 13:20:00,
2013-09-24 08:25:00,63.0,59.7,29.83,SE,138,0.0,18.0,89,4.14,,,0.00,VWS V13.01,2013-09-24 13:25:00,
2013-09-24 08:30:00,63.1,59.5,29.83,SE,137,0.0,18.0,88,4.14,,,0.00,VWS V13.01,2013-09-24 13:30:00,
2013-09-24 08:35:00,63.1,59.5,29.84,South,173,0.0,18.0,88,4.14,,,0.00,VWS V13.01,2013-09-24 13:35:00,
2013-09-24 08:40:00,63.4,59.2,29.84,West,281,0.0,18.0,86,4.14,,,0.00,VWS V13.01,2013-09-24 13:40:00,
2013-09-24 08:45:00,63.8,59.2,29.84,West,281,0.0,18.0,85,4.14,,,0.00,VWS V13.01,2013-09-24 13:45:00,
2013-09-24 08:50:00,64.5,59.6,29.84,West,281,0.0,18.0,84,4.14,,,0.00,VWS V13.01,2013-09-24 13:50:00,
2013-09-24 08:55:00,65.3,60.0,29.84,West,281,0.0,18.0,83,4.14,,,0.00,VWS V13.01,2013-09-24 13:55:00,
2013-09-24 09:01:00,65.8,59.8,29.84,West,281,0.0,18.0,81,4.14,,,0.00,VWS V13.01,2013-09-24 14:01:00,
2013-09-24 09:05:00,66.4,60.0,29.84,West,281,0.0,18.0,80,4.14,,,0.00,VWS V13.01,2013-09-24 14:05:00,
2013-09-24 09:10:00,66.9,59.5,29.84,NW,323,0.0,18.0,77,4.14,,,0.00,VWS V13.01,2013-09-24 14:10:00,
2013-09-24 09:15:00,67.3,59.5,29.84,NW,323,0.0,18.0,76,4.14,,,0.00,VWS V13.01,2013-09-24 14:15:00,
2013-09-24 09:20:00,67.9,59.3,29.85,NW,319,0.0,18.0,74,4.14,,,0.00,VWS V13.01,2013-09-24 14:20:00,
2013-09-24 09:25:00,68.6,60.0,29.85,NW,315,0.0,18.0,74,4.14,,,0.00,VWS V13.01,2013-09-24 14:25:00,
2013-09-24 09:31:00,69.9,60.5,29.85,WNW,302,0.0,18.0,72,4.14,,,0.00,VWS V13.01,2013-09-24 14:31:00,
2013-09-24 09:36:00,71.0,59.9,29.85,WNW,294,2.0,18.0,68,4.14,,,0.00,VWS V13.01,2013-09-24 14:36:00,
2013-09-24 09:41:00,71.3,59.4,29.85,WNW,300,0.0,18.0,66,4.14,,,0.00,VWS V13.01,2013-09-24 14:41:00,
2013-09-24 09:46:00,71.7,59.3,29.85,NW,313,0.0,18.0,65,4.14,,,0.00,VWS V13.01,2013-09-24 14:46:00,
2013-09-24 09:51:00,72.0,59.6,29.85,NW,313,0.0,18.0,65,4.14,,,0.00,VWS V13.01,2013-09-24 14:51:00,
2013-09-24 09:56:00,72.9,60.0,29.85,NW,307,0.0,18.0,64,4.14,,,0.00,VWS V13.01,2013-09-24 14:56:00,
2013-09-24 10:01:00,73.8,60.4,29.85,NW,306,0.0,18.0,63,4.14,,,0.00,VWS V13.01,2013-09-24 15:01:00,
2013-09-24 10:06:00,74.6,60.7,29.85,WNW,300,0.0,18.0,62,4.14,,,0.00,VWS V13.01,2013-09-24 15:06:00,
2013-09-24 10:11:00,75.3,60.5,29.85,WNW,302,0.0,18.0,60,4.14,,,0.00,VWS V13.01,2013-09-24 15:11:00,
2013-09-24 10:16:00,75.9,60.6,29.85,WNW,300,0.0,18.0,59,4.14,,,0.00,VWS V13.01,2013-09-24 15:16:00,
2013-09-24 10:21:00,76.7,60.8,29.85,WNW,300,0.0,18.0,58,4.14,,,0.00,VWS V13.01,2013-09-24 15:21:00,
2013-09-24 10:26:00,77.8,60.9,29.85,WNW,301,0.0,18.0,56,4.14,,,0.00,VWS V13.01,2013-09-24 15:26:00,
2013-09-24 10:31:00,78.3,60.3,29.86,WNW,301,0.0,18.0,54,4.14,,,0.00,VWS V13.01,2013-09-24 15:31:00,
2013-09-24 10:36:00,79.0,59.9,29.86,WNW,301,0.0,18.0,52,4.14,,,0.00,VWS V13.01,2013-09-24 15:36:00,
2013-09-24 10:41:00,80.2,60.5,29.86,WNW,300,0.0,18.0,51,4.14,,,0.00,VWS V13.01,2013-09-24 15:41:00,
2013-09-24 10:46:00,81.3,60.3,29.86,WNW,299,0.0,18.0,49,4.14,,,0.00,VWS V13.01,2013-09-24 15:46:00,
2013-09-24 10:51:00,82.5,60.8,29.86,WNW,299,0.0,18.0,48,4.14,,,0.00,VWS V13.01,2013-09-24 15:51:00,
2013-09-24 10:56:00,83.1,61.4,29.86,WNW,292,0.0,18.0,48,4.14,,,0.00,VWS V13.01,2013-09-24 15:56:00,
2013-09-24 11:01:00,82.9,60.6,29.86,NNW,331,0.0,18.0,47,4.14,,,0.00,VWS V13.01,2013-09-24 16:01:00,
2013-09-24 11:06:00,83.7,62.5,29.86,NW,315,0.0,18.0,49,4.14,,,0.00,VWS V13.01,2013-09-24 16:06:00,
2013-09-24 11:11:00,84.8,62.3,29.86,NW,316,0.0,18.0,47,4.14,,,0.00,VWS V13.01,2013-09-24 16:11:00,
2013-09-24 11:17:00,85.8,62.7,29.85,NW,316,0.0,18.0,46,4.14,,,0.00,VWS V13.01,2013-09-24 16:17:00,
2013-09-24 11:22:00,85.8,62.7,29.85,NW,316,0.0,18.0,46,4.14,,,0.00,VWS V13.01,2013-09-24 16:22:00,
2013-09-24 11:27:00,86.1,63.5,29.85,NW,315,0.0,18.0,47,4.14,,,0.00,VWS V13.01,2013-09-24 16:27:00,
2013-09-24 11:32:00,86.8,64.2,29.85,NW,315,0.0,18.0,47,4.14,,,0.00,VWS V13.01,2013-09-24 16:32:00,
2013-09-24 11:37:00,86.9,63.0,29.85,NNW,336,0.0,18.0,45,4.14,,,0.00,VWS V13.01,2013-09-24 16:37:00,
2013-09-24 11:42:00,87.1,63.8,29.85,NNW,336,0.0,18.0,46,4.14,,,0.00,VWS V13.01,2013-09-24 16:42:00,
2013-09-24 11:47:00,87.6,63.7,29.84,WNW,292,0.0,18.0,45,4.14,,,0.00,VWS V13.01,2013-09-24 16:47:00,
2013-09-24 11:52:00,88.1,64.1,29.84,WNW,291,0.0,18.0,45,4.14,,,0.00,VWS V13.01,2013-09-24 16:52:00,
2013-09-24 11:57:00,88.4,63.1,29.84,WNW,292,0.0,18.0,43,4.14,,,0.00,VWS V13.01,2013-09-24 16:57:00,
2013-09-24 12:02:00,89.3,62.5,29.84,West,281,0.0,18.0,41,4.14,,,0.00,VWS V13.01,2013-09-24 17:02:00,
2013-09-24 12:07:00,89.5,62.0,29.84,West,281,0.0,18.0,40,4.14,,,0.00,VWS V13.01,2013-09-24 17:07:00,
2013-09-24 12:12:00,88.9,60.0,29.84,WNW,301,0.0,18.0,38,4.14,,,0.00,VWS V13.01,2013-09-24 17:12:00,
2013-09-24 12:17:00,89.3,61.1,29.84,NW,305,0.0,18.0,39,4.14,,,0.00,VWS V13.01,2013-09-24 17:17:00,
2013-09-24 12:22:00,89.2,61.8,29.84,NNW,331,0.0,18.0,40,4.14,,,0.00,VWS V13.01,2013-09-24 17:22:00,
2013-09-24 12:27:00,89.5,61.3,29.84,NNW,331,0.0,18.0,39,4.14,,,0.00,VWS V13.01,2013-09-24 17:27:00,
2013-09-24 12:32:00,90.5,62.2,29.84,NW,323,4.0,18.0,39,4.14,,,0.00,VWS V13.01,2013-09-24 17:32:00,
2013-09-24 12:37:00,89.3,61.1,29.84,WNW,300,3.0,18.0,39,4.14,,,0.00,VWS V13.01,2013-09-24 17:37:00,
2013-09-24 12:42:00,89.0,62.3,29.84,WNW,282,2.0,18.0,41,4.14,,,0.00,VWS V13.01,2013-09-24 17:42:00,
2013-09-24 12:47:00,90.0,61.0,29.83,WNW,291,0.0,18.0,38,4.14,,,0.00,VWS V13.01,2013-09-24 17:47:00,
2013-09-24 12:52:00,90.2,61.9,29.83,WNW,292,0.0,18.0,39,4.14,,,0.00,VWS V13.01,2013-09-24 17:52:00,
2013-09-24 12:57:00,91.6,62.4,29.83,North,5,0.0,18.0,38,4.14,,,0.00,VWS V13.01,2013-09-24 17:57:00,
2013-09-24 13:02:00,92.1,61.3,29.83,West,273,4.0,18.0,36,4.14,,,0.00,VWS V13.01,2013-09-24 18:02:00,
2013-09-24 13:07:00,90.8,61.0,29.83,WNW,287,0.0,18.0,37,4.14,,,0.00,VWS V13.01,2013-09-24 18:07:00,
2013-09-24 13:12:00,91.8,61.8,29.83,NNW,333,0.0,18.0,37,4.14,,,0.00,VWS V13.01,2013-09-24 18:12:00,
2013-09-24 13:17:00,91.1,62.0,29.82,North,5,1.0,18.0,38,4.14,,,0.00,VWS V13.01,2013-09-24 18:17:00,
2013-09-24 13:22:00,93.3,63.2,29.82,West,268,1.0,18.0,37,4.14,,,0.00,VWS V13.01,2013-09-24 18:22:00,
2013-09-24 13:27:00,93.6,63.4,29.82,WNW,296,0.0,18.0,37,4.14,,,0.00,VWS V13.01,2013-09-24 18:27:00,
2013-09-24 13:32:00,93.8,62.8,29.81,NNW,327,2.0,18.0,36,4.14,,,0.00,VWS V13.01,2013-09-24 18:32:00,
2013-09-24 13:37:00,94.0,63.8,29.81,WSW,251,4.0,18.0,37,4.14,,,0.00,VWS V13.01,2013-09-24 18:37:00,
2013-09-24 13:42:00,92.7,62.6,29.81,WSW,257,4.0,18.0,37,4.14,,,0.00,VWS V13.01,2013-09-24 18:42:00,
2013-09-24 13:47:00,94.2,63.2,29.80,WSW,242,4.0,18.0,36,4.14,,,0.00,VWS V13.01,2013-09-24 18:47:00,
2013-09-24 13:52:00,94.5,62.6,29.80,WSW,238,5.0,18.0,35,4.14,,,0.00,VWS V13.01,2013-09-24 18:52:00,
2013-09-24 13:57:00,94.3,62.5,29.80,WSW,238,0.0,18.0,35,4.14,,,0.00,VWS V13.01,2013-09-24 18:57:00,
2013-09-24 14:02:00,94.5,62.6,29.80,ENE,61,8.0,18.0,35,4.14,,,0.00,VWS V13.01,2013-09-24 19:02:00,
2013-09-24 14:07:00,93.7,61.1,29.80,ENE,65,2.0,18.0,34,4.14,,,0.00,VWS V13.01,2013-09-24 19:07:00,
2013-09-24 14:12:00,94.3,60.8,29.80,SE,125,0.0,18.0,33,4.14,,,0.00,VWS V13.01,2013-09-24 19:12:00,
2013-09-24 14:17:00,94.5,60.1,29.79,ENE,61,3.0,18.0,32,4.14,,,0.00,VWS V13.01,2013-09-24 19:17:00,
2013-09-24 14:22:00,93.8,60.4,29.79,NE,55,0.0,18.0,33,4.14,,,0.00,VWS V13.01,2013-09-24 19:22:00,
2013-09-24 14:27:00,93.7,60.3,29.79,NNW,340,2.0,18.0,33,4.14,,,0.00,VWS V13.01,2013-09-24 19:27:00,
2013-09-24 14:32:00,93.6,61.8,29.79,North,360,0.0,18.0,35,4.14,,,0.00,VWS V13.01,2013-09-24 19:32:00,
2013-09-24 14:37:00,95.5,62.7,29.79,NW,326,3.0,18.0,34,4.14,,,0.00,VWS V13.01,2013-09-24 19:37:00,
2013-09-24 14:42:00,94.4,60.9,29.79,NE,38,3.0,18.0,33,4.14,,,0.00,VWS V13.01,2013-09-24 19:42:00,
2013-09-24 14:47:00,94.2,59.8,29.78,NE,40,7.0,18.0,32,4.14,,,0.00,VWS V13.01,2013-09-24 19:47:00,
2013-09-24 14:52:00,94.7,61.2,29.78,NE,49,2.0,18.0,33,4.14,,,0.00,VWS V13.01,2013-09-24 19:52:00,
2013-09-24 14:57:00,94.2,61.6,29.78,WNW,284,0.0,18.0,34,4.14,,,0.00,VWS V13.01,2013-09-24 19:57:00,
2013-09-24 15:02:00,94.2,61.6,29.78,North,11,0.0,18.0,34,4.14,,,0.00,VWS V13.01,2013-09-24 20:02:00,
2013-09-24 15:07:00,94.5,61.0,29.78,NNW,338,2.0,18.0,33,4.14,,,0.00,VWS V13.01,2013-09-24 20:07:00,
2013-09-24 15:12:00,94.6,60.2,29.78,East,88,8.0,18.0,32,4.14,,,0.00,VWS V13.01,2013-09-24 20:12:00,
2013-09-24 15:17:00,94.4,60.0,29.77,ENE,67,0.0,18.0,32,4.14,,,0.00,VWS V13.01,2013-09-24 20:17:00,
2013-09-24 15:22:00,96.9,62.2,29.77,ENE,67,0.0,18.0,32,4.14,,,0.00,VWS V13.01,2013-09-24 20:22:00,
2013-09-24 15:27:00,96.3,60.8,29.77,ESE,117,2.0,18.0,31,4.14,,,0.00,VWS V13.01,2013-09-24 20:27:00,
2013-09-24 15:32:00,95.4,60.0,29.77,ESE,115,0.0,18.0,31,4.14,,,0.00,VWS V13.01,2013-09-24 20:32:00,
2013-09-24 15:37:00,95.2,59.8,29.77,ESE,111,4.0,18.0,31,4.14,,,0.00,VWS V13.01,2013-09-24 20:37:00,
2013-09-24 15:42:00,95.3,59.9,29.77,ENE,76,4.0,18.0,31,4.14,,,0.00,VWS V13.01,2013-09-24 20:42:00,
2013-09-24 15:47:00,94.4,60.0,29.76,NNE,28,7.0,18.0,32,4.14,,,0.00,VWS V13.01,2013-09-24 20:47:00,
2013-09-24 15:52:00,93.8,59.5,29.76,North,350,0.0,18.0,32,4.14,,,0.00,VWS V13.01,2013-09-24 20:52:00,
2013-09-24 15:57:00,94.4,60.0,29.76,North,9,0.0,18.0,32,4.14,,,0.00,VWS V13.01,2013-09-24 20:57:00,
2013-09-24 16:03:00,94.4,59.1,29.76,NNW,327,4.0,18.0,31,4.14,,,0.00,VWS V13.01,2013-09-24 21:03:00,
2013-09-24 16:08:00,94.2,60.7,29.76,NW,325,2.0,18.0,33,4.14,,,0.00,VWS V13.01,2013-09-24 21:08:00,
2013-09-24 16:13:00,94.2,60.7,29.76,NNE,31,1.0,18.0,33,4.14,,,0.00,VWS V13.01,2013-09-24 21:13:00,
2013-09-24 16:18:00,94.7,59.4,29.76,ENE,74,0.0,18.0,31,4.14,,,0.00,VWS V13.01,2013-09-24 21:18:00,
2013-09-24 16:23:00,95.0,60.5,29.76,NNE,18,3.0,18.0,32,4.14,,,0.00,VWS V13.01,2013-09-24 21:23:00,
2013-09-24 16:28:00,94.5,61.0,29.76,NNE,29,0.0,18.0,33,4.14,,,0.00,VWS V13.01,2013-09-24 21:28:00,
2013-09-24 16:33:00,94.9,60.5,29.75,North,355,6.0,18.0,32,4.14,,,0.00,VWS V13.01,2013-09-24 21:33:00,
2013-09-24 16:38:00,93.9,61.3,29.75,North,10,5.0,18.0,34,4.14,,,0.00,VWS V13.01,2013-09-24 21:38:00,
2013-09-24 16:43:00,94.4,60.9,29.75,East,80,7.0,18.0,33,4.14,,,0.00,VWS V13.01,2013-09-24 21:43:00,
2013-09-24 16:48:00,94.3,59.0,29.75,East,91,0.0,18.0,31,4.14,,,0.00,VWS V13.01,2013-09-24 21:48:00,
2013-09-24 16:53:00,95.5,60.1,29.75,East,96,0.0,18.0,31,4.14,,,0.00,VWS V13.01,2013-09-24 21:53:00,
2013-09-24 16:58:00,95.3,60.8,29.75,East,91,0.0,18.0,32,4.14,,,0.00,VWS V13.01,2013-09-24 21:58:00,
2013-09-24 17:03:00,96.5,61.0,29.75,East,96,8.0,18.0,31,4.14,,,0.00,VWS V13.01,2013-09-24 22:03:00,
2013-09-24 17:08:00,94.6,60.2,29.75,East,94,0.0,18.0,32,4.14,,,0.00,VWS V13.01,2013-09-24 22:08:00,
2013-09-24 17:13:00,94.6,60.2,29.75,North,5,3.0,18.0,32,4.14,,,0.00,VWS V13.01,2013-09-24 22:13:00,
2013-09-24 17:18:00,94.0,61.4,29.75,NE,46,0.0,18.0,34,4.14,,,0.00,VWS V13.01,2013-09-24 22:18:00,
2013-09-24 17:23:00,93.7,59.4,29.75,North,350,0.0,18.0,32,4.14,,,0.00,VWS V13.01,2013-09-24 22:23:00,
2013-09-24 17:28:00,94.6,60.2,29.75,North,350,0.0,18.0,32,4.14,,,0.00,VWS V13.01,2013-09-24 22:28:00,
2013-09-24 17:33:00,94.0,60.5,29.75,NE,38,0.0,18.0,33,4.14,,,0.00,VWS V13.01,2013-09-24 22:33:00,
2013-09-24 17:38:00,94.4,61.7,29.75,NE,37,0.0,18.0,34,4.14,,,0.00,VWS V13.01,2013-09-24 22:38:00,
2013-09-24 17:43:00,94.7,61.2,29.75,NE,46,6.0,18.0,33,4.14,,,0.00,VWS V13.01,2013-09-24 22:43:00,
2013-09-24 17:48:00,94.2,60.7,29.75,NNE,30,6.0,18.0,33,4.14,,,0.00,VWS V13.01,2013-09-24 22:48:00,
2013-09-24 17:53:00,93.7,61.1,29.75,NE,42,3.0,18.0,34,4.14,,,0.00,VWS V13.01,2013-09-24 22:53:00,
2013-09-24 17:58:00,93.5,61.0,29.75,NE,49,0.0,18.0,34,4.14,,,0.00,VWS V13.01,2013-09-24 22:58:00,
2013-09-24 18:03:00,93.3,60.8,29.75,NE,54,2.0,18.0,34,4.14,,,0.00,VWS V13.01,2013-09-24 23:03:00,
2013-09-24 18:08:00,93.4,60.9,29.75,NE,48,0.0,18.0,34,4.14,,,0.00,VWS V13.01,2013-09-24 23:08:00,
2013-09-24 18:13:00,93.5,61.0,29.75,NE,49,0.0,18.0,34,4.14,,,0.00,VWS V13.01,2013-09-24 23:13:00,
2013-09-24 18:18:00,93.4,60.9,29.75,ENE,61,8.0,18.0,34,4.14,,,0.00,VWS V13.01,2013-09-24 23:18:00,
2013-09-24 18:23:00,93.3,60.8,29.75,ENE,59,4.0,18.0,34,4.14,,,0.00,VWS V13.01,2013-09-24 23:23:00,
2013-09-24 18:28:00,93.0,60.5,29.75,ENE,59,5.0,18.0,34,4.14,,,0.00,VWS V13.01,2013-09-24 23:28:00,
2013-09-24 18:33:00,92.8,61.2,29.75,ENE,59,0.0,18.0,35,4.14,,,0.00,VWS V13.01,2013-09-24 23:33:00,
2013-09-24 18:38:00,92.6,61.0,29.75,ENE,59,0.0,18.0,35,4.14,,,0.00,VWS V13.01,2013-09-24 23:38:00,
2013-09-24 18:43:00,92.4,60.8,29.75,ENE,59,0.0,18.0,35,4.14,,,0.00,VWS V13.01,2013-09-24 23:43:00,
2013-09-24 18:48:00,92.2,60.6,29.75,ENE,59,2.0,18.0,35,4.14,,,0.00,VWS V13.01,2013-09-24 23:48:00,
2013-09-24 18:54:00,92.0,60.5,29.75,ENE,59,0.0,18.0,35,4.14,,,0.00,VWS V13.01,2013-09-24 23:54:00,
2013-09-24 18:59:00,91.7,61.0,29.75,ENE,59,0.0,18.0,36,4.14,,,0.00,VWS V13.01,2013-09-24 23:59:00,
2013-09-24 19:04:00,91.4,60.7,29.75,ENE,59,0.0,18.0,36,4.14,,,0.00,VWS V13.01,2013-09-25 00:04:00,
2013-09-24 19:09:00,91.2,61.3,29.75,ENE,59,0.0,18.0,37,4.14,,,0.00,VWS V13.01,2013-09-25 00:09:00,
2013-09-24 19:14:00,90.9,61.8,29.75,ENE,59,0.0,18.0,38,4.14,,,0.00,VWS V13.01,2013-09-25 00:14:00,
2013-09-24 19:19:00,90.7,61.6,29.75,ENE,59,0.0,18.0,38,4.14,,,0.00,VWS V13.01,2013-09-25 00:19:00,
2013-09-24 19:24:00,90.4,61.4,29.75,ENE,59,0.0,18.0,38,4.14,,,0.00,VWS V13.01,2013-09-25 00:24:00,
2013-09-24 19:29:00,89.9,60.9,29.75,ENE,59,0.0,18.0,38,4.14,,,0.00,VWS V13.01,2013-09-25 00:29:00,
2013-09-24 19:34:00,89.4,61.2,29.75,ENE,59,0.0,18.0,39,4.14,,,0.00,VWS V13.01,2013-09-25 00:34:00,
2013-09-24 19:39:00,88.8,60.7,29.75,ENE,59,0.0,18.0,39,4.14,,,0.00,VWS V13.01,2013-09-25 00:39:00,
2013-09-24 19:44:00,88.3,60.2,29.75,ENE,59,0.0,18.0,39,4.14,,,0.00,VWS V13.01,2013-09-25 00:44:00,
2013-09-24 19:49:00,87.8,60.5,29.75,ENE,59,0.0,18.0,40,4.14,,,0.00,VWS V13.01,2013-09-25 00:49:00,
2013-09-24 19:54:00,87.4,60.1,29.75,ENE,59,0.0,18.0,40,4.14,,,0.00,VWS V13.01,2013-09-25 00:54:00,
2013-09-24 19:59:00,87.1,60.6,29.75,ENE,59,0.0,18.0,41,4.14,,,0.00,VWS V13.01,2013-09-25 00:59:00,
2013-09-24 20:04:00,86.8,60.3,29.76,ENE,59,0.0,18.0,41,4.14,,,0.00,VWS V13.01,2013-09-25 01:04:00,
2013-09-24 20:09:00,86.6,60.8,29.76,ENE,59,0.0,18.0,42,4.14,,,0.00,VWS V13.01,2013-09-25 01:09:00,
2013-09-24 20:15:00,86.5,62.0,29.76,ENE,59,0.0,18.0,44,4.14,,,0.00,VWS V13.01,2013-09-25 01:15:00,
2013-09-24 20:20:00,86.2,61.1,29.76,ENE,59,0.0,18.0,43,4.14,,,0.00,VWS V13.01,2013-09-25 01:20:00,
2013-09-24 20:25:00,86.0,61.6,29.76,ENE,59,0.0,18.0,44,4.14,,,0.00,VWS V13.01,2013-09-25 01:25:00,
2013-09-24 20:30:00,85.5,61.1,29.76,ENE,59,0.0,18.0,44,4.14,,,0.00,VWS V13.01,2013-09-25 01:30:00,
2013-09-24 20:35:00,85.0,61.3,29.76,ENE,59,0.0,18.0,45,4.14,,,0.00,VWS V13.01,2013-09-25 01:35:00,
2013-09-24 20:40:00,84.6,61.6,29.76,ENE,59,0.0,18.0,46,4.14,,,0.00,VWS V13.01,2013-09-25 01:40:00,
2013-09-24 20:45:00,84.3,61.3,29.76,ENE,59,0.0,18.0,46,4.14,,,0.00,VWS V13.01,2013-09-25 01:45:00,
2013-09-24 20:50:00,84.0,61.0,29.77,ENE,59,0.0,18.0,46,4.14,,,0.00,VWS V13.01,2013-09-25 01:50:00,
2013-09-24 20:55:00,83.7,60.7,29.77,ENE,59,0.0,18.0,46,4.14,,,0.00,VWS V13.01,2013-09-25 01:55:00,
2013-09-24 21:00:00,83.3,60.4,29.77,ENE,59,0.0,18.0,46,4.14,,,0.00,VWS V13.01,2013-09-25 02:00:00,
2013-09-24 21:05:00,83.1,60.8,29.77,ENE,59,0.0,18.0,47,4.14,,,0.00,VWS V13.01,2013-09-25 02:05:00,
2013-09-24 21:10:00,82.9,61.8,29.77,ENE,59,0.0,18.0,49,4.14,,,0.00,VWS V13.01,2013-09-25 02:10:00,
2013-09-24 21:15:00,82.8,64.5,29.77,ENE,59,0.0,18.0,54,4.14,,,0.00,VWS V13.01,2013-09-25 02:15:00,
2013-09-24 21:20:00,82.4,63.0,29.78,ENE,59,0.0,18.0,52,4.14,,,0.00,VWS V13.01,2013-09-25 02:20:00,
2013-09-24 21:25:00,82.0,61.5,29.78,ENE,59,0.0,18.0,50,4.14,,,0.00,VWS V13.01,2013-09-25 02:25:00,
2013-09-24 21:30:00,81.8,63.5,29.78,ENE,59,0.0,18.0,54,4.14,,,0.00,VWS V13.01,2013-09-25 02:30:00,
2013-09-24 21:35:00,81.6,65.9,29.78,ENE,59,0.0,18.0,59,4.14,,,0.00,VWS V13.01,2013-09-25 02:35:00,
2013-09-24 21:40:00,81.2,66.0,29.78,ENE,59,0.0,18.0,60,4.14,,,0.00,VWS V13.01,2013-09-25 02:40:00,
2013-09-24 21:45:00,80.7,66.0,29.78,ENE,59,0.0,18.0,61,4.14,,,0.00,VWS V13.01,2013-09-25 02:45:00,
2013-09-24 21:50:00,80.4,66.2,29.78,ENE,59,0.0,18.0,62,4.14,,,0.00,VWS V13.01,2013-09-25 02:50:00,
2013-09-24 21:55:00,80.1,66.4,29.78,ENE,59,0.0,18.0,63,4.14,,,0.00,VWS V13.01,2013-09-25 02:55:00,
2013-09-24 22:00:00,79.8,66.1,29.78,ENE,59,0.0,18.0,63,4.14,,,0.00,VWS V13.01,2013-09-25 03:00:00,
2013-09-24 22:05:00,79.6,65.9,29.78,ENE,59,0.0,18.0,63,4.14,,,0.00,VWS V13.01,2013-09-25 03:05:00,
2013-09-24 22:10:00,79.2,66.4,29.78,ENE,59,0.0,18.0,65,4.14,,,0.00,VWS V13.01,2013-09-25 03:10:00,
2013-09-24 22:15:00,78.9,66.2,29.78,ENE,59,0.0,18.0,65,4.14,,,0.00,VWS V13.01,2013-09-25 03:15:00,
2013-09-24 22:20:00,78.7,66.4,29.79,ENE,59,0.0,18.0,66,4.14,,,0.00,VWS V13.01,2013-09-25 03:20:00,
2013-09-24 22:25:00,78.4,66.6,29.79,ENE,59,0.0,18.0,67,4.14,,,0.00,VWS V13.01,2013-09-25 03:25:00,
2013-09-24 22:30:00,78.1,66.3,29.79,ENE,59,0.0,18.0,67,4.14,,,0.00,VWS V13.01,2013-09-25 03:30:00,
2013-09-24 22:35:00,77.8,66.0,29.79,ENE,59,0.0,18.0,67,4.14,,,0.00,VWS V13.01,2013-09-25 03:35:00,
2013-09-24 22:40:00,77.5,65.7,29.79,ENE,59,0.0,18.0,67,4.14,,,0.00,VWS V13.01,2013-09-25 03:40:00,
2013-09-24 22:45:00,77.3,65.5,29.79,ENE,59,0.0,18.0,67,4.14,,,0.00,VWS V13.01,2013-09-25 03:45:00,
2013-09-24 22:51:00,77.1,65.3,29.79,ENE,59,0.0,18.0,67,4.14,,,0.00,VWS V13.01,2013-09-25 03:51:00,
2013-09-24 22:56:00,76.9,65.1,29.79,ENE,59,0.0,18.0,67,4.14,,,0.00,VWS V13.01,2013-09-25 03:56:00,
2013-09-24 23:01:00,76.6,65.3,29.79,ENE,59,0.0,18.0,68,4.14,,,0.00,VWS V13.01,2013-09-25 04:01:00,
2013-09-24 23:02:00,76.6,65.3,29.79,ENE,59,0.0,18.0,68,4.14,,,0.00,VWS V13.01,2013-09-25 04:02:00,
2013-09-24 23:07:00,76.4,65.1,29.79,ENE,59,0.0,18.0,68,4.14,,,0.00,VWS V13.01,2013-09-25 04:07:00,
2013-09-24 23:12:00,76.2,65.3,29.79,ENE,59,0.0,18.0,69,4.14,,,0.00,VWS V13.01,2013-09-25 04:12:00,
2013-09-24 23:17:00,76.0,65.5,29.79,ENE,59,0.0,18.0,70,4.14,,,0.00,VWS V13.01,2013-09-25 04:17:00,
2013-09-24 23:22:00,75.7,65.6,29.79,ENE,59,0.0,18.0,71,4.14,,,0.00,VWS V13.01,2013-09-25 04:22:00,
2013-09-24 23:27:00,75.4,65.8,29.79,ENE,59,0.0,18.0,72,4.14,,,0.00,VWS V13.01,2013-09-25 04:27:00,
2013-09-24 23:32:00,75.2,66.0,29.79,ENE,59,0.0,18.0,73,4.14,,,0.00,VWS V13.01,2013-09-25 04:32:00,
2013-09-24 23:37:00,74.9,65.7,29.79,ENE,59,0.0,18.0,73,4.14,,,0.00,VWS V13.01,2013-09-25 04:37:00,
2013-09-24 23:42:00,74.7,65.5,29.79,ENE,59,0.0,18.0,73,4.14,,,0.00,VWS V13.01,2013-09-25 04:42:00,
2013-09-24 23:47:00,74.6,65.4,29.79,ENE,59,0.0,18.0,73,4.14,,,0.00,VWS V13.01,2013-09-25 04:47:00,
2013-09-24 23:52:00,74.5,65.3,29.79,ENE,59,0.0,18.0,73,4.14,,,0.00,VWS V13.01,2013-09-25 04:52:00,
2013-09-24 23:57:00,74.3,65.1,29.79,ENE,59,0.0,18.0,73,4.14,,,0.00,VWS V13.01,2013-09-25 04:57:00,